TimePDT,TemperatureF,Dew PointF,Humidity,Sea Level PressureIn,VisibilityMPH,Wind Direction,Wind SpeedMPH,Gust SpeedMPH,PrecipitationIn,Events,Conditions,WindDirDegrees,DateUTC
12:15 AM,55.4,32.0,41,30.25,10.0,South,3.5,-,N/A,,Clear,180,2013-08-07 07:15:00
12:35 AM,53.6,30.2,41,30.25,10.0,Calm,Calm,-,N/A,,Clear,0,2013-08-07 07:35:00
12:55 AM,53.6,30.2,41,30.24,10.0,Calm,Calm,-,N/A,,Clear,0,2013-08-07 07:55:00
1:15 AM,51.8,30.2,44,30.24,10.0,Calm,Calm,-,N/A,,Clear,0,2013-08-07 08:15:00
1:35 AM,51.8,30.2,44,30.24,10.0,SSE,4.6,-,N/A,,Clear,150,2013-08-07 08:35:00
1:55 AM,51.8,30.2,44,30.24,10.0,Calm,Calm,-,N/A,,Clear,0,2013-08-07 08:55:00
2:15 AM,50.0,32.0,50,30.24,10.0,ESE,3.5,-,N/A,,Clear,120,2013-08-07 09:15:00
2:35 AM,51.8,32.0,47,30.24,10.0,South,4.6,-,N/A,,Clear,170,2013-08-07 09:35:00
2:55 AM,51.8,32.0,47,30.23,10.0,SSE,3.5,-,N/A,,Clear,160,2013-08-07 09:55:00
3:15 AM,50.0,32.0,50,30.23,10.0,SE,4.6,-,N/A,,Clear,140,2013-08-07 10:15:00
3:35 AM,50.0,33.8,54,30.23,10.0,SSE,6.9,-,N/A,,Clear,150,2013-08-07 10:35:00
3:55 AM,48.2,32.0,54,30.23,10.0,South,5.8,-,N/A,,Clear,190,2013-08-07 10:55:00
4:15 AM,44.6,32.0,61,30.23,10.0,Calm,Calm,-,N/A,,Clear,0,2013-08-07 11:15:00
4:35 AM,46.4,32.0,57,30.22,10.0,Calm,Calm,-,N/A,,Clear,0,2013-08-07 11:35:00
4:55 AM,48.2,32.0,54,30.23,10.0,Calm,Calm,-,N/A,,Clear,0,2013-08-07 11:55:00
5:15 AM,48.2,32.0,54,30.23,10.0,Calm,Calm,-,N/A,,Clear,0,2013-08-07 12:15:00
5:35 AM,50.0,33.8,54,30.23,10.0,SE,3.5,-,N/A,,Clear,130,2013-08-07 12:35:00
5:55 AM,48.2,35.6,62,30.23,10.0,SSE,3.5,-,N/A,,Clear,160,2013-08-07 12:55:00
6:15 AM,46.4,33.8,62,30.23,10.0,Calm,Calm,-,N/A,,Clear,0,2013-08-07 13:15:00
6:35 AM,42.8,32.0,66,30.23,10.0,NW,3.5,-,N/A,,Clear,310,2013-08-07 13:35:00
6:55 AM,41.0,30.2,65,30.23,10.0,Calm,Calm,-,N/A,,Clear,0,2013-08-07 13:55:00
7:15 AM,48.2,32.0,54,30.23,10.0,Calm,Calm,-,N/A,,Clear,0,2013-08-07 14:15:00
7:35 AM,53.6,32.0,44,30.23,10.0,Calm,Calm,-,N/A,,Clear,0,2013-08-07 14:35:00
7:55 AM,59.0,32.0,36,30.24,10.0,SE,3.5,-,N/A,,Clear,130,2013-08-07 14:55:00
8:15 AM,60.8,32.0,34,30.24,10.0,SE,5.8,-,N/A,,Clear,140,2013-08-07 15:15:00
8:35 AM,62.6,32.0,32,30.24,10.0,SSE,5.8,-,N/A,,Clear,150,2013-08-07 15:35:00
8:55 AM,64.4,30.2,28,30.24,10.0,Calm,Calm,-,N/A,,Clear,0,2013-08-07 15:55:00
9:15 AM,66.2,28.4,24,30.24,10.0,Calm,Calm,-,N/A,,Clear,0,2013-08-07 16:15:00
9:35 AM,68.0,24.8,20,30.24,10.0,Calm,Calm,-,N/A,,Clear,0,2013-08-07 16:35:00
9:55 AM,71.6,23.0,16,30.24,10.0,Calm,Calm,-,N/A,,Clear,0,2013-08-07 16:55:00
10:15 AM,69.8,24.8,18,30.24,10.0,NNW,3.5,-,N/A,,Clear,340,2013-08-07 17:15:00
10:35 AM,73.4,23.0,15,30.24,10.0,SSE,6.9,-,N/A,,Clear,160,2013-08-07 17:35:00
10:55 AM,73.4,24.8,16,30.24,10.0,North,3.5,-,N/A,,Clear,360,2013-08-07 17:55:00
11:15 AM,75.2,23.0,14,30.23,10.0,West,6.9,-,N/A,,Clear,260,2013-08-07 18:15:00
11:35 AM,75.2,24.8,15,30.23,10.0,Calm,Calm,-,N/A,,Clear,0,2013-08-07 18:35:00
11:55 AM,75.2,24.8,15,30.23,10.0,WNW,12.7,23.0,N/A,,Scattered Clouds,290,2013-08-07 18:55:00
12:15 PM,73.4,24.8,16,30.22,10.0,WNW,4.6,16.1,N/A,,Scattered Clouds,290,2013-08-07 19:15:00
12:35 PM,73.4,23.0,15,30.21,10.0,North,4.6,17.3,N/A,,Scattered Clouds,10,2013-08-07 19:35:00
12:55 PM,75.2,23.0,14,30.21,10.0,West,9.2,-,N/A,,Scattered Clouds,270,2013-08-07 19:55:00
1:15 PM,77.0,23.0,13,30.20,10.0,NNW,10.4,31.1,N/A,,Scattered Clouds,330,2013-08-07 20:15:00
1:35 PM,78.8,23.0,13,30.20,10.0,NW,13.8,20.7,N/A,,Clear,320,2013-08-07 20:35:00
1:55 PM,78.8,24.8,14,30.20,10.0,WNW,17.3,24.2,N/A,,Scattered Clouds,300,2013-08-07 20:55:00
2:15 PM,77.0,26.6,16,30.19,10.0,West,16.1,24.2,N/A,,Clear,270,2013-08-07 21:15:00
2:35 PM,78.8,26.6,15,30.18,10.0,WNW,20.7,27.6,N/A,,Scattered Clouds,300,2013-08-07 21:35:00
2:55 PM,78.8,28.4,16,30.18,10.0,WNW,16.1,24.2,N/A,,Scattered Clouds,300,2013-08-07 21:55:00
3:15 PM,78.8,30.2,17,30.18,10.0,WSW,12.7,19.6,N/A,,Scattered Clouds,250,2013-08-07 22:15:00
3:35 PM,77.0,32.0,19,30.17,10.0,SW,16.1,26.5,N/A,,Clear,220,2013-08-07 22:35:00
3:55 PM,77.0,32.0,19,30.17,10.0,SSW,20.7,27.6,N/A,,Clear,210,2013-08-07 22:55:00
4:15 PM,77.0,32.0,19,30.17,10.0,SW,17.3,26.5,N/A,,Clear,220,2013-08-07 23:15:00
4:35 PM,77.0,32.0,19,30.16,10.0,SSW,15.0,26.5,N/A,,Clear,210,2013-08-07 23:35:00
4:55 PM,77.0,32.0,19,30.17,10.0,SSW,18.4,23.0,N/A,,Clear,210,2013-08-07 23:55:00
5:15 PM,75.2,32.0,21,30.17,10.0,SW,19.6,26.5,N/A,,Clear,220,2013-08-08 00:15:00
5:35 PM,73.4,32.0,22,30.17,10.0,SW,17.3,26.5,N/A,,Clear,220,2013-08-08 00:35:00
5:55 PM,73.4,32.0,22,30.17,10.0,SW,23.0,29.9,N/A,,Clear,220,2013-08-08 00:55:00
6:15 PM,71.6,32.0,23,30.16,10.0,SW,20.7,27.6,N/A,,Clear,220,2013-08-08 01:15:00
6:35 PM,69.8,32.0,25,30.17,10.0,SW,19.6,26.5,N/A,,Clear,220,2013-08-08 01:35:00
6:55 PM,69.8,32.0,25,30.17,10.0,SW,17.3,25.3,N/A,,Clear,220,2013-08-08 01:55:00
7:15 PM,68.0,32.0,26,30.18,10.0,West,8.1,20.7,N/A,,Clear,280,2013-08-08 02:15:00
7:35 PM,66.2,30.2,26,30.18,10.0,West,5.8,9.2,N/A,,Clear,270,2013-08-08 02:35:00
7:55 PM,64.4,32.0,30,30.17,10.0,West,3.5,-,N/A,,Clear,280,2013-08-08 02:55:00
8:15 PM,62.6,30.2,30,30.18,10.0,West,3.5,-,N/A,,Clear,280,2013-08-08 03:15:00
8:35 PM,60.8,30.2,31,30.19,10.0,NW,5.8,-,N/A,,Clear,320,2013-08-08 03:35:00
8:55 PM,59.0,30.2,34,30.19,10.0,Calm,Calm,-,N/A,,Clear,0,2013-08-08 03:55:00
9:15 PM,57.2,30.2,36,30.20,10.0,North,3.5,-,N/A,,Clear,360,2013-08-08 04:15:00
9:35 PM,57.2,30.2,36,30.20,10.0,Calm,Calm,-,N/A,,Clear,0,2013-08-08 04:35:00
9:55 PM,55.4,28.4,36,30.21,10.0,Calm,Calm,-,N/A,,Clear,0,2013-08-08 04:55:00
10:15 PM,53.6,30.2,41,30.21,10.0,SW,3.5,-,N/A,,Clear,230,2013-08-08 05:15:00
10:35 PM,51.8,30.2,44,30.21,10.0,Calm,Calm,-,N/A,,Clear,0,2013-08-08 05:35:00
10:55 PM,53.6,30.2,41,30.21,10.0,Calm,Calm,-,N/A,,Clear,0,2013-08-08 05:55:00
11:15 PM,51.8,28.4,41,30.22,10.0,Calm,Calm,-,N/A,,Clear,0,2013-08-08 06:15:00
11:35 PM,51.8,30.2,44,30.21,10.0,Calm,Calm,-,N/A,,Clear,0,2013-08-08 06:35:00
11:55 PM,51.8,30.2,44,30.21,10.0,Calm,Calm,-,N/A,,Clear,0,2013-08-08 06:55:00